THOR BURNER 2 R/B, 2877

Orbit data source: Space-Track

THOR BURNER 2 R/B, 2877 is space debris in LEO originally from a launch on Thu, 29 Jun 1967 UTC launched from the Air Force Western Test Range (AFWTR). Debris objects in space refer to the collection of defunct objects orbiting the Earth. Examples of debris include non-operational satellites, rocket bodies, and fragments generated from explosions, collisions, or faulty payload assembly.

Loading next visibility...
Identifier
2877, 1967-065C
Orbit
LEO
Country
Flag of USUS
Related business
Manufacturer
BOKT/THKE
Mission
Spacecraft
Bus & Motor
STAR 13, STAR 13
Mass
58 kg wet, 25 kg dry
Launch date (UTC)
1967-06-29 (58 years ago)
Launch vehicle
Unknown
Launch site
Air Force Western Test Range (AFWTR)
Object type
Payload
Rocket body
Debris
Shape & HBR
Unknown
Radar Cross Section
Medium (>0.1 m² and <1 m²)

Expand to show TLE details & history
Last TLE update: 3 days ago

TLE from 3 days ago
0 THOR BURNER 2 R/B
1 02877U 67065C   25304.95284519  .00000027  00000-0  15827-1 0  9998
2 02877  89.9884 313.7505 0065631 312.0197  47.5065  8.36608635781895
Epoch: 2025-10-31T22:52Z
TLE epoch observation values (Epoch: 2025-10-31T22:52:05.824Z)
Latitude
-0°
Longitude
-69.76366°
Altitude
3,828.721 km
Speed
6.264 km/s
True Right ascension
20h 55m 00s
True Declination
0° 00' 00"
Sunlit
Object was in daylight at epoch
Visualization orbit readout
Latitude
Unknown
Longitude
Unknown
Altitude
Unknown
Speed
Unknown
Apparent Right ascension
Unknown
Apparent Declination
Unknown
Sunlit
N/A
Visualization observer readout
Local Sidereal Time
15:02:31
Azimuth
Unknown
Elevation
Unknown
Doppler factor
Unknown
Orbital elements
Apogee altitude
3,936.894 km
Perigee altitude
3,802.379 km
Semi-major axis
10,247.773 km
Eccentricity
0.00656
Inclination
89.9884°
RAAN
313.7505°
Arg. of periapsis
312.0197°
True anomaly
48.06413°
Mean anomaly
47.5065°
Eccentric anomaly
47.785°
Mean motion
2.09218 °/min
Orbital period
172.07 mins
BSTAR
0.015827
Loading maneuver chart data...
Computing Atmospheric mass density...
Loading historical data...
Loading historical data...
Loading historical data...
Loading historical data...
Loading historical data...
Loading historical data...
Loading historical data...
Other satellites on launch #65 in the year 1967 (1967-06-29 UTC)

Documentation

Showing up to 5 results
|